Weather History for KBUR - March, 2013

Change the Weather History Date:

Wednesday, March 13, 2013

  Actual Average Record
Temperature  
Mean Temperature 74 °F 58 °F  
Max Temperature 93 °F 70 °F 93 °F (2013)
Min Temperature 54 °F 46 °F 32 °F (1940)
Degree Days  
Heating Degree Days 0 7  
Month to date heating degree days 53 98  
Since 1 July heating degree days 1064 1239  
Cooling Degree Days 9 0  
Month to date cooling degree days 22 0  
Year to date cooling degree days 24 6  
Growing Degree Days 24 (Base 50)    
Moisture  
Dew Point 36 °F    
Average Humidity 28    
Maximum Humidity 46    
Minimum Humidity 9    
Precipitation  
Precipitation 0.00 in 0.11 in 0.93 in (1986)
Month to date precipitation 0.01 1.61  
Year to date precipitation 0.94 9.62  
Since 1 July precipitation 3.74  
Sea Level Pressure  
Sea Level Pressure 30.03 in    
Wind  
Wind Speed 2 mph (SSE)    
Max Wind Speed 12 mph    
Max Gust Speed 17 mph    
Visibility 10 miles    
Events      
T = Trace of Precipitation, MM = Missing Value Source: NWS Daily Summary

Daily Weather History Graph

Daily Weather History Graph

Search for Another Location

Airport or City:

Trip Planner

Search our weather history database for the weather conditions in past years. The results will help you decide how hot, cold, wet, or windy it might be!

Date:

Astronomy

Mar. 13, 2013 Rise Set
Actual Time 7:06 AM PDT 6:59 PM PDT
Civil Twilight 6:41 AM PDT 7:24 PM PDT
Nautical Twilight 6:12 AM PDT 7:53 PM PDT
Astronomical Twilight 5:42 AM PDT 8:23 PM PDT
Moon 7:55 AM PDT (3/13) 9:12 PM PDT (3/13)
Length of Visible Light 12h 43m
Length of Day
11h 53m
Waxing Crescent, 4% of the Moon is Illuminated
Mar 13
Waxing Crescent
Mar 19
First Quarter
Mar 27
Full
Apr 2
Last Quarter
Apr 10
New

Hourly Weather History & Observations

Time (PDT) Temp. Dew Point Humidity Pressure Visibility Wind Dir Wind Speed Gust Speed Precip Events Conditions
12:53 AM 62.1 °F 37.9 °F 41% 30.05 in 10.0 mi Calm Calm - N/A   Clear
1:53 AM 60.1 °F 39.0 °F 46% 30.05 in 10.0 mi Calm Calm - N/A   Clear
2:53 AM 60.1 °F 36.0 °F 41% 30.04 in 10.0 mi Calm Calm - N/A   Clear
3:53 AM 59.0 °F 36.0 °F 42% 30.04 in 10.0 mi Calm Calm - N/A   Clear
4:53 AM 57.9 °F 36.0 °F 44% 30.03 in 10.0 mi Calm Calm - N/A   Clear
5:53 AM 57.9 °F 36.0 °F 44% 30.04 in 10.0 mi Calm Calm - N/A   Clear
6:53 AM 57.0 °F 37.0 °F 47% 30.05 in 10.0 mi Calm Calm - N/A   Clear
7:53 AM 59.0 °F 37.0 °F 44% 30.06 in 10.0 mi Calm Calm - N/A   Clear
8:53 AM 66.0 °F 39.0 °F 37% 30.07 in 10.0 mi Calm Calm - N/A   Clear
9:53 AM 72.0 °F 39.9 °F 31% 30.08 in 10.0 mi Calm Calm - N/A   Clear
10:53 AM 81.0 °F 37.0 °F 21% 30.08 in 10.0 mi SE 4.6 mph - N/A   Clear
11:53 AM 84.9 °F 34.0 °F 16% 30.08 in 10.0 mi Calm Calm - N/A   Clear
12:53 PM 88.0 °F 28.0 °F 12% 30.05 in 10.0 mi Calm Calm - N/A   Clear
1:53 PM 90.0 °F 24.1 °F 9% 30.02 in 10.0 mi Calm Calm - N/A   Clear
2:53 PM 91.9 °F 28.0 °F 10% 30.00 in 10.0 mi SE 3.5 mph - N/A   Clear
3:53 PM 91.0 °F 33.1 °F 13% 29.98 in 10.0 mi South 10.4 mph - N/A   Clear
4:53 PM 90.0 °F 33.1 °F 13% 29.98 in 10.0 mi South 6.9 mph - N/A   Clear
5:53 PM 87.1 °F 36.0 °F 16% 29.99 in 10.0 mi South 4.6 mph - N/A   Clear
6:53 PM 84.0 °F 39.0 °F 20% 30.00 in 10.0 mi SE 4.6 mph - N/A   Clear
7:53 PM 82.0 °F 32.0 °F 16% 30.01 in 10.0 mi Calm Calm - N/A   Clear
8:53 PM 77.0 °F 36.0 °F 23% 30.02 in 10.0 mi Calm Calm - N/A   Clear
9:53 PM 72.0 °F 48.0 °F 43% 30.04 in 10.0 mi SE 5.8 mph - N/A   Clear
10:53 PM 70.0 °F 44.1 °F 39% 30.04 in 10.0 mi Calm Calm - N/A   Clear
11:53 PM 66.9 °F 48.0 °F 51% 30.04 in 10.0 mi Calm Calm - N/A   Clear